Lid_Strength_Index
0 0 1 0 0 -1 1 1 4 6 5 3 3 0 1 1 0 1 1 2 2 3 3 3 2 1 1 1 0 0 0 1 0 -0 0 -1 -1 -1
0 0 0 0 1 -0 1 1 1 3 5 2 2 1 1 1 1 1 1 2 3 3 3 3 3 2 2 2 1 1 1 1 1 0 -0 -0 0 0
1 1 1 1 1 1 1 1 2 2 4 3 1 1 1 2 2 1 1 2 2 3 3 3 3 3 3 2 2 2 2 1 1 1 1 1 1 2
1 1 1 1 1 1 1 1 2 1 3 4 3 3 2 2 2 2 2 1 2 3 4 4 4 3 4 4 3 2 2 2 2 2 2 2 3 2
1 1 1 1 1 1 1 2 1 1 2 3 3 2 2 2 3 3 3 3 2 3 4 4 5 5 6 4 4 6 5 5 5 5 5 4 4 5
1 0 1 1 2 1 2 2 1 2 2 3 3 3 3 3 3 4 5 3 3 2 4 4 5 6 6 5 5 6 7 7 7 7 7 7 7 7
1 1 0 1 2 2 1 1 2 2 3 3 4 3 4 4 4 5 4 3 3 4 5 5 5 4 3 5 6 7 7 7 7 7 8 8 9 8
1 1 0 2 3 6 5 4 2 2 3 3 4 4 4 3 3 4 4 4 4 3 3 4 3 2 3 6 7 7 7 7 7 8 8 9 9 9
1 1 1 1 1 1 5 6 6 6 4 2 3 3 3 3 2 2 2 2 2 1 2 2 2 4 5 7 8 8 8 8 8 8 8 9 9 10
0 0 1 1 1 1 1 2 2 2 2 1 2 2 2 3 1 1 1 1 0 -0 -0 3 2 4 4 7 8 8 9 9 9 9 9 10 10 10
1 0 0 1 8 7 2 4 4 4 6 7 7 8 8 7 3 0 1 2 3 2 -0 1 1 3 4 6 8 9 9 9 9 10 10 10 10 10
0 0 6 4 8 7 2 3 4 3 3 2 3 5 5 4 6 -1 0 2 2 3 -0 1 1 2 4 4 6 8 8 9 9 9 10 10 10 6
2 1 1 9 8 6 5 2 3 2 4 1 1 1 0 -0 -0 -1 -1 0 2 1 0 -0 1 1 1 3 3 3 3 7 6 8 10 10 10 10
1 1 3 11 10 8 5 9 8 4 0 1 1 1 1 1 -0 -1 -1 -1 -2 -1 -2 -2 1 1 1 2 4 5 5 5 6 6 6 9 9 10
0 5 10 10 10 7 9 8 8 1 1 2 1 1 1 -0 -1 -1 -0 -0 -1 -1 -1 -2 -1 -0 2 5 5 7 7 6 6 7 6 6 6 6
6 3 4 6 7 4 3 3 0 0 1 1 1 0 -0 0 0 -0 0 1 1 2 2 2 2 2 4 5 6 7 7 7 6 7 7 6 6 6
1 0 1 1 1 1 1 0 0 0 1 0 1 1 1 1 0 -0 0 2 3 4 5 5 4 3 5 5 7 6 7 7 7 7 7 8 6 7
1 1 2 1 1 1 1 1 0 1 0 0 0 1 1 1 1 1 1 2 3 5 6 6 6 7 8 9 10 7 7 8 7 7 7 9 9 7
1 2 2 1 1 1 1 1 1 0 -0 0 1 1 1 1 3 2 2 2 2 4 5 6 7 9 11 11 10 13 8 8 9 8 9 9 10 8
1 1 1 1 1 1 1 1 1 1 0 0 0 0 0 1 2 2 3 2 3 4 5 6 6 7 7 8 9 12 14 9 10 10 10 9 9 10
1 1 1 1 1 0 0 0 0 0 1 1 1 1 0 1 1 2 2 8 6 3 5 6 6 13 7 7 10 11 12 14 11 10 11 12 11 9
1 1 0 0 0 0 0 0 1 1 0 1 1 0 0 0 1 1 1 2 3 3 5 6 7 8 9 10 9 10 10 11 12 12 13 12 11 12
1 0 0 0 0 0 0 0 0 0 0 0 0 0 0 1 1 1 1 1 2 4 5 9 9 9 10 11 10 11 11 11 11 11 10 12 11 10